Regional Weather Roundup
Issued by NWS Green Bay, WI

Home | Current Version | Previous Version | Graphics & Text | Print | Product List | Glossary Off
Versions: 1 2 3 4 5 6 7 8 9 10 11 12 13 14 15 16 17 18 19 20 21 22 23 24 25 26 27 28 29 30 31 32 33 34 35 36 37 38 39 40 41 42 43 44 45 46 47 48 49 50

000
ASUS43 KGRB 250059
RWRGRB

NORTH-CENTRAL AND NORTHEAST WISCONSIN REGIONAL WEATHER ROUNDUP
NATIONAL WEATHER SERVICE GREEN BAY WI
800 PM CDT THU JUL 24 2014

WIZ005-009-010>012-018-019-250200-
NORTH CENTRAL WISCONSIN

CITY           SKY/WX    TMP DP  RH WIND       PRES   REMARKS
IRONWOOD       NOT AVBL
MANITOWISH WTR NOT AVBL
ARBOR VITAE    NOT AVBL
EAGLE RIVER    NOT AVBL
LAND O LAKES   NOT AVBL
RHINELANDER    MOCLDY    67  55  65 S3        30.01F
PHILLIPS       NOT AVBL
ANTIGO         NOT AVBL
TOMAHAWK       NOT AVBL
MERRILL        NOT AVBL
$$

WIZ013-073-250200-
NORTHEAST WISCONSIN

CITY           SKY/WX    TMP DP  RH WIND       PRES   REMARKS
IRON MOUNTAIN  PTCLDY    70  53  54 S6        29.98F
MARINETTE      CLEAR     66  48  52 S8        30.00F
$$

WIZ017-030-035>037-045-250200-
CENTRAL WISCONSIN

CITY           SKY/WX    TMP DP  RH WIND       PRES   REMARKS
MEDFORD        NOT AVBL
WAUSAU         CLOUDY    72  51  47 S5        29.99F
MOSINEE        CLEAR     70  57  64 VRB3      30.01F
MARSHFIELD     CLOUDY    71  59  65 S5        29.99F
WISC RAPIDS    CLOUDY    73  54  51 S6        30.00F
STEVENS POINT  NOT AVBL
WAUPACA        NOT AVBL
SHAWANO        PTCLDY    72  55  54 CALM      30.01S
CLINTONVILLE   MOCLDY    70  54  56 S5        30.01S
$$

WIZ038-039-048-051-250200-
FOX VALLEY

CITY           SKY/WX    TMP DP  RH WIND       PRES   REMARKS
NWS GREEN BAY  PTCLDY    69  50  50 S10       30.02F
APPLETON       MOCLDY    70  54  56 S6        30.03F
OSHKOSH        MOCLDY    68  57  68 S6        30.02F
FOND DU LAC    MOCLDY    68  50  52 SE13      30.03F
$$

WIZ022-050-052-250200-
EAST CENTRAL WISCONSIN

CITY           SKY/WX    TMP DP  RH WIND       PRES   REMARKS
STURGEON BAY   CLEAR     63  43  48 S12       30.03F
MANITOWOC      NOT AVBL
SHEBOYGAN      CLEAR     63  47  55 S5        30.06F
$$

LMZ563-521-522-541>543-250200-
LAKESHORE

STATION/POSITION TIME  TEMP    WIND        PRES    VSBY  WAVE
                       AIR SEA DIR/SP/G                  HT/PER
                 (UTC) (F)     (DEG/KT/KT) (MB)    (MI)  (FT/S)
SHEBOYGAN LKSHOR 0000   64     180/ 14/ 15 1018.5F
KEWAUNEE LKSHORE 0000   59     180/ 12/ 13 1018.5F
TWO RIVERS CG    0000   59                   N/A       6   1
NORTHPORT PIER   0000   65     160/  6/ 13 1016.9S
N MID LAKE BUOY  0000   59 55  200/  8/  8 1016.9F         1
STURGEON BAY CG  0000   56 50  190/  8     1018.8      6   1
CHAMBERS ISLAND  0000   67     160/  5/ 12 1016.6F
MENOMINEE LKSHOR 0000   67     160/ 12/ 15 1017.2S
$$


USA.gov is the U.S. government's official web portal to all federal, state and local government web resources and services.